Wind_Speed
4 5 3 4 3 2 2 2 2 2 2 2 1 0 0 1 2 3 2 2 2 2 2 3 4 5 5 5 4 6 5 5 4 4 4 4 5 5 5 6 7 7 4
1 5 3 6 5 3 3 3 3 3 3 4 2 2 2 2 2 3 3 3 2 1 1 1 2 3 4 3 3 3 2 2 2 2 2 4 5 7 7 6 5 2 1
2 3 4 6 6 4 4 4 3 3 3 3 3 2 2 1 3 3 3 4 3 3 3 4 3 1 2 1 3 3 1 0 1 1 2 3 4 3 2 3 3 5 5
3 1 3 4 4 5 5 5 4 4 4 4 4 4 4 4 4 4 4 5 5 5 5 6 6 5 2 2 4 7 5 3 2 2 2 2 3 5 4 5 5 6 5
1 4 3 4 1 4 4 5 5 5 5 6 6 6 5 6 6 6 6 7 7 7 8 10 7 7 6 7 6 8 8 6 5 3 3 3 3 3 3 4 4 5 4
3 1 2 5 4 4 5 5 6 7 8 8 8 8 7 7 8 7 8 8 7 8 9 7 10 10 8 8 8 9 10 9 8 6 4 4 4 3 4 5 5 5 4
5 2 1 4 5 6 6 7 8 9 9 10 11 11 10 10 10 10 9 9 8 9 9 9 9 11 10 8 8 9 11 11 10 9 7 6 6 5 4 4 6 6 7
6 4 3 4 6 7 8 8 8 9 11 12 13 13 13 13 13 13 12 11 11 11 11 11 12 14 14 12 9 10 12 13 13 12 10 8 7 7 6 6 7 7 7
9 8 7 7 8 9 12 11 12 12 12 12 12 13 15 15 15 15 14 14 14 13 13 13 14 15 16 16 14 12 13 15 15 14 13 11 10 9 9 8 7 8 8
12 12 9 9 11 10 13 13 14 14 14 14 14 15 15 17 18 18 18 18 17 17 16 15 16 16 17 17 17 15 14 16 17 16 16 14 13 12 11 11 10 9 9
11 11 11 10 9 11 12 13 15 17 17 16 17 16 16 18 19 19 20 20 20 20 19 19 19 19 19 19 20 19 17 17 18 18 17 17 17 15 14 12 15 12 11
10 11 12 13 13 12 12 14 15 16 17 19 20 21 20 20 20 21 22 21 22 22 23 23 23 23 23 22 22 21 21 19 19 18 19 18 19 19 18 15 16 16 14
11 12 14 14 15 15 14 14 14 16 18 19 20 22 24 24 24 23 22 21 22 22 24 25 26 26 25 25 24 23 23 22 21 20 19 19 20 21 21 20 17 18 17
11 13 14 15 16 15 15 15 16 16 16 18 20 22 24 26 26 26 26 25 24 24 25 25 25 26 26 25 23 23 24 23 22 22 21 20 20 22 23 23 21 20 21
11 14 16 18 17 16 16 16 16 17 17 18 19 19 22 25 27 28 29 29 29 27 28 27 24 25 26 28 27 25 24 26 23 22 22 21 22 22 24 24 24 23 23
14 18 19 19 19 19 18 18 19 19 19 19 19 20 21 23 25 28 29 30 32 30 31 30 30 28 27 27 28 27 27 25 22 21 20 18 19 19 21 23 23 23 26
16 17 19 20 19 19 19 19 19 19 19 19 20 20 20 21 23 25 29 30 28 29 31 31 32 29 28 30 30 26 28 27 25 22 20 20 19 19 20 21 24 25 25
16 19 21 21 20 18 18 18 18 18 18 19 20 20 19 19 21 22 24 26 29 30 31 30 29 29 29 28 29 27 23 22 22 21 21 22 23 22 24 19 22 22 25
18 23 23 20 16 15 15 14 12 13 15 15 15 15 15 17 16 18 21 24 24 25 29 28 28 28 27 27 26 26 25 26 25 24 24 24 23 23 24 24 26 28 29
19 22 19 15 12 13 12 12 12 11 9 10 11 10 12 14 15 16 18 21 20 21 21 23 27 28 28 29 27 26 27 28 28 28 28 26 26 26 27 28 29 30 31
18 16 15 12 11 11 10 11 13 15 14 11 11 12 12 13 15 17 17 16 12 14 13 17 19 23 16 23 22 27 30 27 27 26 26 27 27 26 24 24 27 29 30
13 13 13 10 8 9 12 14 13 13 15 14 11 14 15 12 13 14 14 14 13 9 10 12 9 8 9 11 16 13 7 12 11 14 15 15 19 25 27 27 29 30 31
10 12 9 6 6 8 9 11 10 9 8 8 10 10 10 11 10 12 13 12 13 16 14 11 12 13 12 14 18 15 8 5 28 23 20 22 18 22 26 28 29 29 28
7 9 7 5 5 6 6 8 11 12 11 13 13 13 10 11 12 12 15 13 11 10 11 11 11 11 11 12 7 11 13 18 13 22 27 26 29 19 22 25 30 30 26
6 5 3 3 5 7 7 7 7 8 10 10 10 10 10 11 12 12 13 13 12 13 15 11 10 10 11 10 8 7 9 9 13 15 24 27 33 29 25 22 22 22 24
4 2 1 3 5 7 8 8 8 8 8 7 7 8 9 11 12 13 13 12 11 9 8 11 13 13 14 13 12 13 11 8 13 14 22 28 26 33 28 24 23 21 21
Wind_Direction
19 33 337 298 265 261 237 255 246 233 221 203 192 209 239 339 0 4 3 5 10 60 81 73 93 122 117 100 122 106 102 110 120 102 90 101 98 110 117 117 129 115 84
42 3 348 306 321 283 260 246 260 238 221 215 209 240 267 268 313 331 333 324 328 281 138 66 86 106 100 95 164 117 85 104 135 145 131 133 122 103 100 119 133 173 288
118 327 331 295 309 289 267 243 252 269 257 241 235 269 302 292 324 319 309 299 286 264 231 237 235 79 67 89 206 234 273 237 195 204 197 193 195 208 235 260 276 285 296
161 186 306 311 308 314 275 257 257 258 255 257 251 264 275 292 301 309 305 294 274 260 256 268 239 236 294 331 265 262 269 259 257 264 245 219 228 242 257 277 286 289 299
149 194 313 332 269 290 306 286 272 266 260 258 259 269 279 284 287 297 297 309 280 263 265 261 261 230 272 284 276 258 262 265 260 262 273 263 276 252 251 270 278 285 292
92 41 272 301 331 293 275 281 283 276 267 266 268 269 270 276 283 290 297 296 294 276 271 270 240 245 269 283 273 257 253 263 264 267 269 257 264 283 303 306 296 290 283
48 79 259 275 270 276 277 272 269 262 267 270 271 274 276 277 277 280 282 281 288 281 273 264 253 251 262 288 270 257 258 262 262 264 271 273 278 273 284 302 300 302 302
4 340 279 269 264 271 275 276 284 276 262 261 269 273 271 269 272 276 277 277 277 278 275 273 262 262 263 268 277 262 258 261 262 265 268 275 277 275 278 293 299 293 294
338 321 289 272 264 259 268 277 283 282 277 271 267 268 269 268 269 269 271 271 272 273 271 270 269 264 265 263 267 268 258 257 259 260 266 271 276 277 274 279 291 291 292
328 326 314 286 272 268 260 262 269 274 279 280 275 271 270 268 270 271 270 270 270 268 267 266 266 264 260 261 261 264 264 258 258 257 262 268 269 271 275 270 283 288 291
317 324 323 313 297 281 273 270 267 262 269 272 275 276 277 274 271 271 271 271 269 269 269 268 266 263 260 258 255 256 258 259 260 259 262 267 268 269 270 265 276 284 289
325 331 331 323 314 305 293 281 276 272 267 263 267 270 271 272 277 273 270 271 272 271 269 268 267 267 262 257 256 255 256 256 258 259 260 263 266 267 270 267 266 277 283
342 335 329 329 328 321 311 301 290 281 276 271 267 264 269 270 271 274 275 274 272 271 271 271 270 268 265 259 256 256 257 256 257 259 260 260 262 263 264 265 264 268 279
339 341 337 332 328 323 321 316 309 300 289 278 272 270 268 262 267 271 273 274 274 278 273 271 271 267 266 266 261 259 261 261 260 263 262 263 265 261 260 260 262 263 266
332 331 330 328 325 325 323 320 317 312 304 298 290 282 277 272 266 261 264 269 271 273 274 272 269 268 267 270 264 262 263 260 255 257 259 261 262 264 258 260 261 263 266
330 328 326 325 321 319 318 318 318 316 311 305 298 291 285 282 280 272 267 262 264 269 271 275 269 268 266 268 269 265 264 264 257 258 259 261 261 265 259 257 261 265 265
332 331 326 323 320 317 316 318 320 318 314 311 307 301 294 288 286 286 278 271 268 264 267 271 270 265 264 266 268 267 263 264 262 257 258 262 262 261 258 258 264 268 270
330 328 328 322 314 308 309 314 318 316 313 313 312 311 309 302 293 295 287 282 277 273 274 270 268 266 263 265 265 264 260 258 257 257 258 258 261 262 261 265 274 286 280
328 327 326 323 318 315 317 322 323 320 319 320 318 325 323 321 314 306 301 293 286 274 269 282 271 271 269 264 263 261 255 254 257 262 263 262 262 264 265 263 263 263 267
325 327 327 325 324 328 331 337 344 350 347 345 342 340 336 331 329 328 318 306 302 291 292 275 274 272 279 264 263 261 257 257 259 263 268 270 271 272 273 275 276 275 273
330 329 327 329 333 340 341 342 349 1 7 6 359 353 339 340 341 343 343 344 332 316 294 302 298 279 298 270 269 263 263 261 266 269 269 270 270 271 272 275 277 276 276
327 331 332 335 341 2 9 10 11 16 24 16 20 22 11 1 3 0 352 358 351 342 316 302 319 337 300 291 350 358 352 319 272 265 262 265 278 284 283 282 280 280 280
326 332 337 348 2 18 20 24 40 35 27 8 22 17 9 3 5 354 348 345 336 329 330 328 319 331 310 313 314 307 330 297 298 313 297 297 287 289 297 299 298 292 288
314 327 336 3 22 28 30 29 36 39 31 33 30 24 359 344 342 353 350 353 346 338 324 324 333 328 320 311 284 275 263 256 286 290 287 278 295 290 300 302 299 296 291
299 323 349 36 35 41 40 45 42 43 38 31 23 15 14 24 23 25 20 16 5 358 353 354 340 319 314 310 303 287 270 276 269 272 292 294 295 300 304 307 311 309 287
268 305 122 77 55 51 48 45 48 45 43 26 20 13 12 7 2 2 1 3 360 353 341 327 330 326 321 324 326 327 324 306 281 297 302 305 298 305 312 313 307 314 287
Height
1543 1542 1542 1542 1542 1542 1543 1543 1543 1543 1544 1544 1544 1544 1544 1544 1544 1544 1544 1544 1544 1543 1543 1543 1542 1542 1542 1543 1543 1542 1542 1542 1542 1542 1543 1543 1543 1543 1543 1543 1543 1544 1544
1543 1543 1543 1542 1542 1542 1543 1543 1543 1543 1543 1543 1544 1544 1544 1544 1544 1544 1544 1544 1544 1544 1544 1544 1544 1544 1544 1544 1544 1543 1543 1543 1543 1543 1543 1543 1544 1544 1544 1544 1544 1544 1544
1543 1543 1542 1542 1542 1542 1542 1542 1543 1544 1543 1543 1544 1544 1545 1544 1545 1545 1544 1544 1544 1544 1544 1545 1545 1545 1544 1544 1544 1544 1544 1544 1543 1543 1543 1543 1544 1544 1544 1544 1544 1544 1544
1542 1542 1541 1541 1542 1542 1542 1542 1543 1543 1543 1543 1544 1544 1544 1544 1544 1544 1544 1544 1544 1544 1544 1545 1544 1545 1545 1544 1544 1544 1544 1544 1544 1544 1544 1543 1543 1543 1543 1544 1544 1543 1543
1541 1541 1541 1541 1541 1541 1542 1542 1542 1542 1543 1543 1543 1544 1544 1544 1544 1544 1544 1544 1543 1543 1543 1543 1544 1544 1544 1544 1544 1543 1544 1544 1544 1544 1544 1544 1543 1543 1543 1543 1543 1543 1542
1541 1542 1542 1541 1541 1542 1541 1541 1542 1542 1542 1542 1543 1543 1543 1543 1543 1544 1543 1543 1542 1542 1542 1542 1543 1543 1543 1543 1543 1542 1543 1543 1543 1543 1543 1543 1543 1543 1543 1543 1542 1542 1542
1541 1541 1541 1540 1540 1540 1540 1540 1540 1540 1541 1541 1541 1541 1542 1542 1541 1541 1541 1541 1541 1541 1541 1541 1541 1542 1542 1542 1542 1542 1541 1542 1542 1542 1542 1542 1542 1542 1541 1542 1542 1542 1542
1540 1540 1540 1539 1539 1539 1539 1538 1539 1539 1539 1539 1539 1539 1539 1539 1539 1539 1539 1539 1539 1539 1539 1539 1540 1540 1541 1541 1541 1541 1540 1540 1540 1541 1541 1541 1541 1541 1540 1540 1540 1540 1540
1539 1539 1539 1538 1538 1538 1538 1538 1538 1537 1537 1537 1536 1536 1537 1536 1537 1536 1537 1536 1537 1537 1537 1537 1537 1538 1538 1539 1539 1539 1539 1538 1538 1539 1539 1539 1540 1540 1540 1539 1539 1539 1539
1538 1537 1537 1537 1536 1536 1535 1535 1535 1535 1535 1535 1534 1534 1534 1533 1534 1534 1534 1534 1534 1534 1534 1534 1534 1534 1534 1535 1536 1536 1536 1536 1536 1536 1537 1537 1538 1538 1538 1538 1538 1538 1538
1537 1535 1535 1534 1533 1533 1533 1533 1532 1532 1532 1532 1532 1531 1531 1531 1530 1530 1530 1531 1531 1531 1531 1531 1530 1531 1531 1531 1531 1532 1533 1533 1533 1534 1534 1535 1535 1536 1536 1537 1536 1536 1536
1535 1534 1533 1532 1531 1530 1530 1529 1529 1528 1528 1529 1529 1529 1528 1528 1527 1527 1527 1527 1527 1528 1527 1527 1527 1527 1527 1526 1527 1528 1528 1529 1529 1530 1531 1532 1532 1533 1533 1534 1535 1534 1534
1533 1533 1531 1530 1529 1528 1527 1526 1525 1525 1524 1524 1524 1525 1524 1524 1524 1523 1523 1523 1523 1523 1523 1523 1523 1522 1522 1522 1523 1523 1524 1525 1525 1526 1527 1527 1528 1529 1530 1530 1532 1532 1532
1532 1531 1530 1529 1527 1526 1524 1523 1522 1520 1520 1519 1519 1519 1518 1519 1519 1519 1519 1518 1518 1519 1518 1518 1518 1518 1518 1518 1518 1519 1519 1519 1520 1521 1522 1523 1524 1524 1525 1526 1527 1528 1528
1532 1530 1528 1527 1525 1523 1522 1520 1519 1517 1516 1515 1514 1514 1513 1513 1512 1512 1513 1514 1513 1513 1513 1513 1513 1513 1513 1513 1513 1514 1514 1514 1515 1516 1517 1518 1519 1519 1520 1521 1523 1524 1524
1530 1528 1526 1524 1522 1521 1519 1518 1516 1514 1512 1510 1510 1509 1509 1508 1507 1506 1506 1506 1507 1508 1508 1506 1507 1507 1507 1507 1508 1508 1508 1509 1510 1511 1512 1513 1514 1515 1515 1516 1518 1519 1520
1528 1526 1524 1521 1519 1518 1516 1515 1513 1510 1508 1506 1505 1504 1504 1503 1502 1501 1501 1500 1500 1500 1500 1500 1500 1500 1500 1501 1503 1502 1504 1505 1505 1506 1507 1508 1509 1510 1510 1512 1513 1514 1515
1525 1524 1522 1519 1517 1515 1514 1512 1510 1507 1505 1502 1501 1500 1499 1499 1498 1497 1496 1495 1495 1495 1495 1494 1494 1494 1494 1495 1496 1498 1498 1499 1500 1501 1501 1502 1503 1503 1505 1504 1507 1507 1509
1523 1521 1518 1516 1514 1512 1511 1510 1508 1505 1503 1500 1498 1497 1497 1496 1494 1493 1492 1491 1489 1488 1489 1490 1489 1489 1489 1490 1491 1491 1493 1494 1495 1495 1496 1497 1497 1498 1499 1501 1501 1500 1500
1522 1519 1516 1513 1512 1510 1509 1508 1506 1503 1500 1498 1496 1496 1495 1494 1492 1490 1489 1487 1485 1484 1484 1483 1484 1486 1484 1486 1485 1485 1486 1487 1489 1490 1491 1492 1492 1493 1493 1493 1493 1493 1493
1520 1517 1514 1512 1511 1509 1508 1506 1503 1500 1499 1497 1495 1494 1493 1492 1490 1488 1486 1485 1484 1482 1481 1480 1480 1481 1482 1480 1478 1479 1480 1482 1484 1485 1485 1486 1486 1487 1486 1486 1486 1486 1485
1518 1516 1514 1512 1510 1508 1506 1504 1502 1500 1499 1497 1495 1494 1493 1492 1490 1489 1487 1486 1484 1482 1480 1480 1479 1479 1480 1478 1478 1479 1477 1479 1478 1480 1480 1480 1481 1480 1479 1479 1478 1478 1477
1516 1515 1513 1511 1509 1507 1505 1504 1503 1501 1500 1498 1495 1494 1494 1492 1490 1489 1487 1485 1484 1483 1481 1479 1479 1477 1477 1476 1477 1481 1478 1477 1477 1473 1475 1475 1474 1472 1472 1472 1470 1468 1468
1515 1513 1511 1510 1508 1506 1505 1504 1502 1501 1498 1496 1494 1494 1493 1492 1490 1488 1486 1485 1484 1481 1480 1479 1478 1476 1477 1476 1476 1474 1477 1477 1472 1467 1464 1468 1468 1467 1466 1464 1464 1462 1461
1513 1512 1511 1509 1508 1506 1505 1503 1502 1500 1498 1497 1496 1495 1493 1491 1489 1487 1486 1485 1484 1483 1481 1479 1478 1476 1474 1474 1475 1474 1476 1470 1471 1468 1458 1459 1458 1459 1458 1459 1457 1455 1454
1510 1510 1509 1509 1507 1506 1505 1503 1502 1500 1498 1498 1497 1495 1493 1491 1489 1487 1486 1485 1484 1483 1481 1480 1477 1475 1474 1473 1471 1469 1468 1467 1468 1464 1456 1455 1455 1454 1451 1453 1453 1449 1446